owner,sensor,date,latitude,longitude,vertical_datum,wind_speed,wind_to_direction,wind_speed_of_gust,qcFlag 
COMPS,ioos:station:USF.COMPS:C12:1,2016-10-01T00:05:00Z,27.4980,-83.7220,3.0,4.59,38.02,6.0,'1111122,1111122,1111122' 
COMPS,ioos:station:USF.COMPS:C12:1,2016-10-01T00:35:00Z,27.4980,-83.7220,3.0,5.38,50.47,6.68,'1111122,1111122,1111122' 
COMPS,ioos:station:USF.COMPS:C12:1,2016-10-01T01:05:00Z,27.4980,-83.7220,3.0,5.74,42.57,7.27,'1111122,1111122,1111122' 
COMPS,ioos:station:USF.COMPS:C12:1,2016-10-01T01:35:00Z,27.4980,-83.7220,3.0,6.07,38.68,7.73,'1111122,1111122,1111122' 
COMPS,ioos:station:USF.COMPS:C12:1,2016-10-01T02:05:00Z,27.4980,-83.7220,3.0,6.58,36.49,7.83,'1111122,1111122,1111122' 
COMPS,ioos:station:USF.COMPS:C12:1,2016-10-01T02:35:00Z,27.4980,-83.7220,3.0,6.22,39.41,7.32,'1111122,1111122,1111122' 
COMPS,ioos:station:USF.COMPS:C12:1,2016-10-01T03:05:00Z,27.4980,-83.7220,3.0,6.17,44.5,7.66,'1111122,1111122,1111122' 
COMPS,ioos:station:USF.COMPS:C12:1,2016-10-01T03:35:00Z,27.4980,-83.7220,3.0,6.53,50.56,7.77,'1111122,1111122,1111122' 
COMPS,ioos:station:USF.COMPS:C12:1,2016-10-01T04:05:00Z,27.4980,-83.7220,3.0,5.75,53.44,7.2,'1111122,1111122,1111122' 
COMPS,ioos:station:USF.COMPS:C12:1,2016-10-01T04:35:00Z,27.4980,-83.7220,3.0,5.83,54.53,7.46,'1111122,1111122,1111122' 
COMPS,ioos:station:USF.COMPS:C12:1,2016-10-01T05:05:00Z,27.4980,-83.7220,3.0,5.82,57.61,7.61,'1111122,1111122,1111122' 
COMPS,ioos:station:USF.COMPS:C12:1,2016-10-01T05:35:00Z,27.4980,-83.7220,3.0,5.33,58.8,7.16,'1111122,1111122,1111122' 
COMPS,ioos:station:USF.COMPS:C12:1,2016-10-01T06:05:00Z,27.4980,-83.7220,3.0,4.81,52.78,5.95,'1111122,1111122,1111122' 
COMPS,ioos:station:USF.COMPS:C12:1,2016-10-01T06:35:00Z,27.4980,-83.7220,3.0,4.08,54.94,5.6,'1111122,1111122,1111122' 
COMPS,ioos:station:USF.COMPS:C12:1,2016-10-01T07:05:00Z,27.4980,-83.7220,3.0,4.14,59.45,5.4,'1111122,1111122,1111122' 
COMPS,ioos:station:USF.COMPS:C12:1,2016-10-01T07:35:00Z,27.4980,-83.7220,3.0,3.82,50.73,5.2,'1111122,1111122,1111122' 
COMPS,ioos:station:USF.COMPS:C12:1,2016-10-01T08:05:00Z,27.4980,-83.7220,3.0,3.98,38.51,5.23,'1111122,1111122,1111122' 
COMPS,ioos:station:USF.COMPS:C12:1,2016-10-01T08:35:00Z,27.4980,-83.7220,3.0,4.69,31.18,6.22,'1111122,1111122,1111122' 
COMPS,ioos:station:USF.COMPS:C12:1,2016-10-01T09:05:00Z,27.4980,-83.7220,3.0,5.15,37.84,7.17,'1111122,1111122,1111122' 
COMPS,ioos:station:USF.COMPS:C12:1,2016-10-01T09:35:00Z,27.4980,-83.7220,3.0,6.0,26.61,8.39,'1111122,1111122,1111122' 
COMPS,ioos:station:USF.COMPS:C12:1,2016-10-01T10:05:00Z,27.4980,-83.7220,3.0,6.28,28.15,7.89,'1111122,1111122,1111122' 
COMPS,ioos:station:USF.COMPS:C12:1,2016-10-01T10:35:00Z,27.4980,-83.7220,3.0,6.71,27.58,8.27,'1111122,1111122,1111122' 
COMPS,ioos:station:USF.COMPS:C12:1,2016-10-01T11:05:00Z,27.4980,-83.7220,3.0,6.66,26.35,8.41,'1111122,1111122,1111122' 
COMPS,ioos:station:USF.COMPS:C12:1,2016-10-01T11:35:00Z,27.4980,-83.7220,3.0,6.47,33.8,9.72,'1111122,1111122,1111122' 
COMPS,ioos:station:USF.COMPS:C12:1,2016-10-01T12:05:00Z,27.4980,-83.7220,3.0,7.1,34.94,8.94,'1111122,1111122,1111122' 
COMPS,ioos:station:USF.COMPS:C12:1,2016-10-01T12:35:00Z,27.4980,-83.7220,3.0,6.58,33.56,8.03,'1111122,1111122,1111122' 
COMPS,ioos:station:USF.COMPS:C12:1,2016-10-01T13:05:00Z,27.4980,-83.7220,3.0,6.24,37.56,7.9,'1111122,1111122,1111122' 
COMPS,ioos:station:USF.COMPS:C12:1,2016-10-01T13:35:00Z,27.4980,-83.7220,3.0,6.41,46.7,8.09,'1111122,1111122,1111122' 
COMPS,ioos:station:USF.COMPS:C12:1,2016-10-01T14:05:00Z,27.4980,-83.7220,3.0,6.89,58.1,8.45,'1111122,1111122,1111122' 
COMPS,ioos:station:USF.COMPS:C12:1,2016-10-01T14:35:00Z,27.4980,-83.7220,3.0,6.89,67.28,8.61,'1111122,1111122,1111122' 
COMPS,ioos:station:USF.COMPS:C12:1,2016-10-01T15:05:00Z,27.4980,-83.7220,3.0,7.04,77.89,8.87,'1111122,1111122,1111122' 
COMPS,ioos:station:USF.COMPS:C12:1,2016-10-01T15:35:00Z,27.4980,-83.7220,3.0,6.19,74.26,7.89,'1111122,1111122,1111122' 
COMPS,ioos:station:USF.COMPS:C12:1,2016-10-01T16:05:00Z,27.4980,-83.7220,3.0,5.9,76.93,7.69,'1111122,1111122,1111122' 
COMPS,ioos:station:USF.COMPS:C12:1,2016-10-01T16:35:00Z,27.4980,-83.7220,3.0,5.87,79.67,6.99,'1111122,1111122,1111122' 
COMPS,ioos:station:USF.COMPS:C12:1,2016-10-01T17:05:00Z,27.4980,-83.7220,3.0,5.44,72.58,6.66,'1111122,1111122,1111122' 
COMPS,ioos:station:USF.COMPS:C12:1,2016-10-01T17:35:00Z,27.4980,-83.7220,3.0,5.12,69.27,6.73,'1111122,1111122,1111122' 
COMPS,ioos:station:USF.COMPS:C12:1,2016-10-01T18:05:00Z,27.4980,-83.7220,3.0,4.54,71.7,5.54,'1111122,1111122,1111122' 
COMPS,ioos:station:USF.COMPS:C12:1,2016-10-01T18:35:00Z,27.4980,-83.7220,3.0,4.24,77.42,5.63,'1111122,1111122,1111122' 
COMPS,ioos:station:USF.COMPS:C12:1,2016-10-01T19:05:00Z,27.4980,-83.7220,3.0,4.36,63.04,6.24,'1111122,1111122,1111122' 
COMPS,ioos:station:USF.COMPS:C12:1,2016-10-01T19:35:00Z,27.4980,-83.7220,3.0,4.9,70.28,6.57,'1111122,1111122,1111122' 
COMPS,ioos:station:USF.COMPS:C12:1,2016-10-01T20:05:00Z,27.4980,-83.7220,3.0,4.28,71.98,5.53,'1111122,1111122,1111122' 
COMPS,ioos:station:USF.COMPS:C12:1,2016-10-01T20:35:00Z,27.4980,-83.7220,3.0,4.03,62.32,5.15,'1111122,1111122,1111122' 
COMPS,ioos:station:USF.COMPS:C12:1,2016-10-01T21:05:00Z,27.4980,-83.7220,3.0,4.42,49.16,6.27,'1111122,1111122,1111122' 
COMPS,ioos:station:USF.COMPS:C12:1,2016-10-01T21:35:00Z,27.4980,-83.7220,3.0,4.54,63.93,5.81,'1111122,1111122,1111122' 
COMPS,ioos:station:USF.COMPS:C12:1,2016-10-01T22:05:00Z,27.4980,-83.7220,3.0,3.92,51.55,5.29,'1111122,1111122,1111122' 
COMPS,ioos:station:USF.COMPS:C12:1,2016-10-01T22:35:00Z,27.4980,-83.7220,3.0,3.27,47.5,4.21,'1111122,1111122,1111122' 
COMPS,ioos:station:USF.COMPS:C12:1,2016-10-01T23:05:00Z,27.4980,-83.7220,3.0,3.76,34.28,4.73,'1111122,1111122,1111122' 
COMPS,ioos:station:USF.COMPS:C12:1,2016-10-01T23:35:00Z,27.4980,-83.7220,3.0,3.07,42.13,3.95,'1111122,1111122,1111122' 
COMPS,ioos:station:USF.COMPS:C12:1,2016-10-02T00:05:00Z,27.4980,-83.7220,3.0,3.09,49.8,3.72,'1111122,1111122,1111122' 
COMPS,ioos:station:USF.COMPS:C12:1,2016-10-02T00:35:00Z,27.4980,-83.7220,3.0,3.41,46.34,4.39,'1111122,1111122,1111122' 
COMPS,ioos:station:USF.COMPS:C12:1,2016-10-02T01:05:00Z,27.4980,-83.7220,3.0,3.27,48.69,4.12,'1111122,1111122,1111122' 
COMPS,ioos:station:USF.COMPS:C12:1,2016-10-02T01:35:00Z,27.4980,-83.7220,3.0,3.88,53.56,4.86,'1111122,1111122,1111122' 
COMPS,ioos:station:USF.COMPS:C12:1,2016-10-02T02:05:00Z,27.4980,-83.7220,3.0,4.15,48.78,5.02,'1111122,1111122,1111122' 
COMPS,ioos:station:USF.COMPS:C12:1,2016-10-02T02:35:00Z,27.4980,-83.7220,3.0,4.14,49.8,5.3,'1111122,1111122,1111122' 
COMPS,ioos:station:USF.COMPS:C12:1,2016-10-02T03:05:00Z,27.4980,-83.7220,3.0,4.95,51.46,5.96,'1111122,1111122,1111122' 
COMPS,ioos:station:USF.COMPS:C12:1,2016-10-02T03:35:00Z,27.4980,-83.7220,3.0,4.46,60.12,5.56,'1111122,1111122,1111122' 
COMPS,ioos:station:USF.COMPS:C12:1,2016-10-02T04:05:00Z,27.4980,-83.7220,3.0,4.79,66.79,6.27,'1111122,1111122,1111122' 
COMPS,ioos:station:USF.COMPS:C12:1,2016-10-02T04:35:00Z,27.4980,-83.7220,3.0,5.85,73.47,6.95,'1111122,1111122,1111122' 
COMPS,ioos:station:USF.COMPS:C12:1,2016-10-02T05:05:00Z,27.4980,-83.7220,3.0,6.32,81.76,8.02,'1111122,1111122,1111122' 
COMPS,ioos:station:USF.COMPS:C12:1,2016-10-02T05:35:00Z,27.4980,-83.7220,3.0,6.8,88.93,9.36,'1111122,1111122,1111122' 
COMPS,ioos:station:USF.COMPS:C12:1,2016-10-02T06:05:00Z,27.4980,-83.7220,3.0,8.4,114.16,11.08,'1111122,1111122,1111122' 
COMPS,ioos:station:USF.COMPS:C12:1,2016-10-02T06:35:00Z,27.4980,-83.7220,3.0,5.57,112.81,7.12,'1111122,1111122,1111122' 
COMPS,ioos:station:USF.COMPS:C12:1,2016-10-02T07:05:00Z,27.4980,-83.7220,3.0,2.43,147.35,4.5,'1111122,1111122,1111122' 
COMPS,ioos:station:USF.COMPS:C12:1,2016-10-02T07:35:00Z,27.4980,-83.7220,3.0,0.51,235.58,1.38,'1111122,1111122,1111122' 
COMPS,ioos:station:USF.COMPS:C12:1,2016-10-02T08:05:00Z,27.4980,-83.7220,3.0,0.52,9.13,0.89,'1111122,1111122,1111122' 
COMPS,ioos:station:USF.COMPS:C12:1,2016-10-02T08:35:00Z,27.4980,-83.7220,3.0,1.71,73.73,2.24,'1111122,1111122,1111122' 
COMPS,ioos:station:USF.COMPS:C12:1,2016-10-02T09:05:00Z,27.4980,-83.7220,3.0,2.96,51.41,3.82,'1111122,1111122,1111122' 
COMPS,ioos:station:USF.COMPS:C12:1,2016-10-02T09:35:00Z,27.4980,-83.7220,3.0,4.15,62.75,5.29,'1111122,1111122,1111122' 
COMPS,ioos:station:USF.COMPS:C12:1,2016-10-02T10:05:00Z,27.4980,-83.7220,3.0,5.55,94.1,6.82,'1111122,1111122,1111122' 
COMPS,ioos:station:USF.COMPS:C12:1,2016-10-02T10:35:00Z,27.4980,-83.7220,3.0,3.79,99.0,4.86,'1111122,1111122,1111122' 
COMPS,ioos:station:USF.COMPS:C12:1,2016-10-02T11:05:00Z,27.4980,-83.7220,3.0,5.05,117.17,5.98,'1111122,1111122,1111122' 
COMPS,ioos:station:USF.COMPS:C12:1,2016-10-02T11:35:00Z,27.4980,-83.7220,3.0,4.72,119.17,5.82,'1111122,1111122,1111122' 
COMPS,ioos:station:USF.COMPS:C12:1,2016-10-02T12:05:00Z,27.4980,-83.7220,3.0,4.35,121.56,5.35,'1111122,1111122,1111122' 
COMPS,ioos:station:USF.COMPS:C12:1,2016-10-02T12:35:00Z,27.4980,-83.7220,3.0,3.45,117.64,4.38,'1111122,1111122,1111122' 
COMPS,ioos:station:USF.COMPS:C12:1,2016-10-02T13:05:00Z,27.4980,-83.7220,3.0,3.51,126.03,4.4,'1111122,1111122,1111122' 
COMPS,ioos:station:USF.COMPS:C12:1,2016-10-02T13:35:00Z,27.4980,-83.7220,3.0,1.71,100.87,2.86,'1111122,1111122,1111122' 
COMPS,ioos:station:USF.COMPS:C12:1,2016-10-02T14:05:00Z,27.4980,-83.7220,3.0,2.92,93.72,4.08,'1111122,1111122,1111122' 
COMPS,ioos:station:USF.COMPS:C12:1,2016-10-02T14:35:00Z,27.4980,-83.7220,3.0,2.42,95.24,3.36,'1111122,1111122,1111122' 
COMPS,ioos:station:USF.COMPS:C12:1,2016-10-02T15:05:00Z,27.4980,-83.7220,3.0,3.16,109.4,4.01,'1111122,1111122,1111122' 
COMPS,ioos:station:USF.COMPS:C12:1,2016-10-02T15:35:00Z,27.4980,-83.7220,3.0,2.55,103.42,3.43,'1111122,1111122,1111122' 
COMPS,ioos:station:USF.COMPS:C12:1,2016-10-02T16:05:00Z,27.4980,-83.7220,3.0,2.81,112.68,4.06,'1111122,1111122,1111122' 
COMPS,ioos:station:USF.COMPS:C12:1,2016-10-02T16:35:00Z,27.4980,-83.7220,3.0,3.72,99.83,5.18,'1111122,1111122,1111122' 
COMPS,ioos:station:USF.COMPS:C12:1,2016-10-02T17:05:00Z,27.4980,-83.7220,3.0,3.53,103.95,4.87,'1111122,1111122,1111122' 
COMPS,ioos:station:USF.COMPS:C12:1,2016-10-02T17:35:00Z,27.4980,-83.7220,3.0,3.59,89.0,4.72,'1111122,1111122,1111122' 
COMPS,ioos:station:USF.COMPS:C12:1,2016-10-02T18:05:00Z,27.4980,-83.7220,3.0,4.32,98.22,5.73,'1111122,1111122,1111122' 
COMPS,ioos:station:USF.COMPS:C12:1,2016-10-02T18:35:00Z,27.4980,-83.7220,3.0,4.26,90.18,5.48,'1111122,1111122,1111122' 
COMPS,ioos:station:USF.COMPS:C12:1,2016-10-02T19:05:00Z,27.4980,-83.7220,3.0,4.15,86.55,5.09,'1111122,1111122,1111122' 
COMPS,ioos:station:USF.COMPS:C12:1,2016-10-02T19:35:00Z,27.4980,-83.7220,3.0,3.97,75.71,4.84,'1111122,1111122,1111122' 
COMPS,ioos:station:USF.COMPS:C12:1,2016-10-02T20:05:00Z,27.4980,-83.7220,3.0,4.16,49.38,5.05,'1111122,1111122,1111122' 
COMPS,ioos:station:USF.COMPS:C12:1,2016-10-02T20:35:00Z,27.4980,-83.7220,3.0,3.61,22.27,4.55,'1111122,1111122,1111122' 
COMPS,ioos:station:USF.COMPS:C12:1,2016-10-02T21:05:00Z,27.4980,-83.7220,3.0,3.81,23.07,5.15,'1111122,1111122,1111122' 
COMPS,ioos:station:USF.COMPS:C12:1,2016-10-02T21:35:00Z,27.4980,-83.7220,3.0,4.68,13.2,5.96,'1111122,1111122,1111122' 
COMPS,ioos:station:USF.COMPS:C12:1,2016-10-02T22:05:00Z,27.4980,-83.7220,3.0,5.18,2.3,6.33,'1111122,1111122,1111122' 
COMPS,ioos:station:USF.COMPS:C12:1,2016-10-02T22:35:00Z,27.4980,-83.7220,3.0,5.58,4.76,6.78,'1111122,1111122,1111122' 
COMPS,ioos:station:USF.COMPS:C12:1,2016-10-02T23:05:00Z,27.4980,-83.7220,3.0,5.87,7.6,7.32,'1111122,1111122,1111122' 
COMPS,ioos:station:USF.COMPS:C12:1,2016-10-02T23:35:00Z,27.4980,-83.7220,3.0,5.74,17.92,7.13,'1111122,1111122,1111122' 
COMPS,ioos:station:USF.COMPS:C12:1,2016-10-03T00:05:00Z,27.4980,-83.7220,3.0,6.51,24.99,7.5,'1111122,1111122,1111122' 
COMPS,ioos:station:USF.COMPS:C12:1,2016-10-03T00:35:00Z,27.4980,-83.7220,3.0,6.62,27.2,8.4,'1111122,1111122,1111122' 
COMPS,ioos:station:USF.COMPS:C12:1,2016-10-03T01:05:00Z,27.4980,-83.7220,3.0,7.0,45.57,8.4,'1111122,1111122,1111122' 
COMPS,ioos:station:USF.COMPS:C12:1,2016-10-03T01:35:00Z,27.4980,-83.7220,3.0,7.2,54.71,8.49,'1111122,1111122,1111122' 
COMPS,ioos:station:USF.COMPS:C12:1,2016-10-03T02:05:00Z,27.4980,-83.7220,3.0,8.84,100.64,11.14,'1111122,1111122,1111122' 
COMPS,ioos:station:USF.COMPS:C12:1,2016-10-03T02:35:00Z,27.4980,-83.7220,3.0,9.45,70.72,12.14,'1111122,1111122,1111122' 
COMPS,ioos:station:USF.COMPS:C12:1,2016-10-03T03:05:00Z,27.4980,-83.7220,3.0,5.74,84.2,8.0,'1111122,1111122,1111122' 
COMPS,ioos:station:USF.COMPS:C12:1,2016-10-03T03:35:00Z,27.4980,-83.7220,3.0,3.96,90.62,5.22,'1111122,1111122,1111122' 
COMPS,ioos:station:USF.COMPS:C12:1,2016-10-03T04:05:00Z,27.4980,-83.7220,3.0,5.41,112.85,7.29,'1111122,1111122,1111122' 
COMPS,ioos:station:USF.COMPS:C12:1,2016-10-03T04:35:00Z,27.4980,-83.7220,3.0,6.21,113.16,8.07,'1111122,1111122,1111122' 
COMPS,ioos:station:USF.COMPS:C12:1,2016-10-03T05:05:00Z,27.4980,-83.7220,3.0,6.84,113.76,8.54,'1111122,1111122,1111122' 
COMPS,ioos:station:USF.COMPS:C12:1,2016-10-03T05:35:00Z,27.4980,-83.7220,3.0,6.63,109.42,8.17,'1111122,1111122,1111122' 
COMPS,ioos:station:USF.COMPS:C12:1,2016-10-03T06:05:00Z,27.4980,-83.7220,3.0,5.64,128.63,7.11,'1111122,1111122,1111122' 
COMPS,ioos:station:USF.COMPS:C12:1,2016-10-03T06:35:00Z,27.4980,-83.7220,3.0,6.2,126.44,7.91,'1111122,1111122,1111122' 
COMPS,ioos:station:USF.COMPS:C12:1,2016-10-03T07:05:00Z,27.4980,-83.7220,3.0,6.26,124.9,7.5,'1111122,1111122,1111122' 
COMPS,ioos:station:USF.COMPS:C12:1,2016-10-03T07:35:00Z,27.4980,-83.7220,3.0,5.83,127.0,7.07,'1111122,1111122,1111122' 
COMPS,ioos:station:USF.COMPS:C12:1,2016-10-03T08:05:00Z,27.4980,-83.7220,3.0,5.82,119.75,7.22,'1111122,1111122,1111122' 
COMPS,ioos:station:USF.COMPS:C12:1,2016-10-03T08:35:00Z,27.4980,-83.7220,3.0,5.76,115.41,7.05,'1111122,1111122,1111122' 
COMPS,ioos:station:USF.COMPS:C12:1,2016-10-03T09:05:00Z,27.4980,-83.7220,3.0,6.29,112.95,7.83,'1111122,1111122,1111122' 
COMPS,ioos:station:USF.COMPS:C12:1,2016-10-03T09:35:00Z,27.4980,-83.7220,3.0,5.9,111.28,7.18,'1111122,1111122,1111122' 
COMPS,ioos:station:USF.COMPS:C12:1,2016-10-03T10:05:00Z,27.4980,-83.7220,3.0,6.42,105.04,7.72,'1111122,1111122,1111122' 
COMPS,ioos:station:USF.COMPS:C12:1,2016-10-03T10:35:00Z,27.4980,-83.7220,3.0,6.31,103.0,8.37,'1111122,1111122,1111122' 
COMPS,ioos:station:USF.COMPS:C12:1,2016-10-03T11:05:00Z,27.4980,-83.7220,3.0,6.54,92.72,9.4,'1111122,1111122,1111122' 
COMPS,ioos:station:USF.COMPS:C12:1,2016-10-03T11:35:00Z,27.4980,-83.7220,3.0,7.48,97.3,8.77,'1111122,1111122,1111122' 
COMPS,ioos:station:USF.COMPS:C12:1,2016-10-03T12:05:00Z,27.4980,-83.7220,3.0,6.68,92.75,7.94,'1111122,1111122,1111122' 
COMPS,ioos:station:USF.COMPS:C12:1,2016-10-03T12:35:00Z,27.4980,-83.7220,3.0,6.74,88.39,9.05,'1111122,1111122,1111122' 
COMPS,ioos:station:USF.COMPS:C12:1,2016-10-03T13:05:00Z,27.4980,-83.7220,3.0,6.72,88.24,8.3,'1111122,1111122,1111122' 
COMPS,ioos:station:USF.COMPS:C12:1,2016-10-03T13:35:00Z,27.4980,-83.7220,3.0,6.16,98.63,7.61,'1111122,1111122,1111122' 
COMPS,ioos:station:USF.COMPS:C12:1,2016-10-03T14:05:00Z,27.4980,-83.7220,3.0,6.29,109.97,8.3,'1111122,1111122,1111122' 
COMPS,ioos:station:USF.COMPS:C12:1,2016-10-03T14:35:00Z,27.4980,-83.7220,3.0,5.85,108.84,6.92,'1111122,1111122,1111122' 
COMPS,ioos:station:USF.COMPS:C12:1,2016-10-03T15:05:00Z,27.4980,-83.7220,3.0,5.17,89.74,6.2,'1111122,1111122,1111122' 
COMPS,ioos:station:USF.COMPS:C12:1,2016-10-03T15:35:00Z,27.4980,-83.7220,3.0,4.59,84.78,5.84,'1111122,1111122,1111122' 
COMPS,ioos:station:USF.COMPS:C12:1,2016-10-03T16:05:00Z,27.4980,-83.7220,3.0,4.55,92.79,5.9,'1111122,1111122,1111122' 
COMPS,ioos:station:USF.COMPS:C12:1,2016-10-03T16:35:00Z,27.4980,-83.7220,3.0,3.7,63.56,4.92,'1111122,1111122,1111122' 
COMPS,ioos:station:USF.COMPS:C12:1,2016-10-03T17:05:00Z,27.4980,-83.7220,3.0,4.32,49.37,5.6,'1111122,1111122,1111122' 
COMPS,ioos:station:USF.COMPS:C12:1,2016-10-03T17:35:00Z,27.4980,-83.7220,3.0,5.01,42.02,6.52,'1111122,1111122,1111122' 
COMPS,ioos:station:USF.COMPS:C12:1,2016-10-03T18:05:00Z,27.4980,-83.7220,3.0,12.54,285.67,18.29,'1111122,1111122,1111122' 
COMPS,ioos:station:USF.COMPS:C12:1,2016-10-03T18:35:00Z,27.4980,-83.7220,3.0,11.3,342.44,18.18,'1111122,1111122,1111122' 
COMPS,ioos:station:USF.COMPS:C12:1,2016-10-03T19:05:00Z,27.4980,-83.7220,3.0,5.64,306.4,7.58,'1111122,1111122,1111122' 
COMPS,ioos:station:USF.COMPS:C12:1,2016-10-03T19:35:00Z,27.4980,-83.7220,3.0,4.77,356.48,5.94,'1111122,1111122,1111122' 
COMPS,ioos:station:USF.COMPS:C12:1,2016-10-03T20:05:00Z,27.4980,-83.7220,3.0,5.41,346.13,6.28,'1111122,1111122,1111122' 
COMPS,ioos:station:USF.COMPS:C12:1,2016-10-03T20:35:00Z,27.4980,-83.7220,3.0,4.42,350.97,6.24,'1111122,1111122,1111122' 
COMPS,ioos:station:USF.COMPS:C12:1,2016-10-03T21:05:00Z,27.4980,-83.7220,3.0,5.17,9.03,6.34,'1111122,1111122,1111122' 
COMPS,ioos:station:USF.COMPS:C12:1,2016-10-03T21:35:00Z,27.4980,-83.7220,3.0,6.84,44.39,8.55,'1111122,1111122,1111122' 
COMPS,ioos:station:USF.COMPS:C12:1,2016-10-03T22:05:00Z,27.4980,-83.7220,3.0,6.66,58.95,8.67,'1111122,1111122,1111122' 
COMPS,ioos:station:USF.COMPS:C12:1,2016-10-03T22:35:00Z,27.4980,-83.7220,3.0,7.82,72.52,9.95,'1111122,1111122,1111122' 
COMPS,ioos:station:USF.COMPS:C12:1,2016-10-03T23:05:00Z,27.4980,-83.7220,3.0,8.12,60.81,11.18,'1111122,1111122,1111122' 
COMPS,ioos:station:USF.COMPS:C12:1,2016-10-03T23:35:00Z,27.4980,-83.7220,3.0,7.91,71.22,10.3,'1111122,1111122,1111122' 
COMPS,ioos:station:USF.COMPS:C12:1,2016-10-04T00:05:00Z,27.4980,-83.7220,3.0,8.36,80.38,10.31,'1111122,1111122,1111122' 
COMPS,ioos:station:USF.COMPS:C12:1,2016-10-04T00:35:00Z,27.4980,-83.7220,3.0,8.19,86.52,9.79,'1111122,1111122,1111122' 
COMPS,ioos:station:USF.COMPS:C12:1,2016-10-04T01:05:00Z,27.4980,-83.7220,3.0,9.12,103.51,12.82,'1111122,1111122,1111122' 
COMPS,ioos:station:USF.COMPS:C12:1,2016-10-04T01:35:00Z,27.4980,-83.7220,3.0,9.43,129.71,11.79,'1111122,1111122,1111122' 
COMPS,ioos:station:USF.COMPS:C12:1,2016-10-04T02:05:00Z,27.4980,-83.7220,3.0,8.89,115.09,10.82,'1111122,1111122,1111122' 
COMPS,ioos:station:USF.COMPS:C12:1,2016-10-04T02:35:00Z,27.4980,-83.7220,3.0,7.96,119.21,10.57,'1111122,1111122,1111122' 
COMPS,ioos:station:USF.COMPS:C12:1,2016-10-04T03:05:00Z,27.4980,-83.7220,3.0,6.97,109.53,9.05,'1111122,1111122,1111122' 
COMPS,ioos:station:USF.COMPS:C12:1,2016-10-04T03:35:00Z,27.4980,-83.7220,3.0,6.84,101.2,8.42,'1111122,1111122,1111122' 
COMPS,ioos:station:USF.COMPS:C12:1,2016-10-04T04:05:00Z,27.4980,-83.7220,3.0,6.26,105.75,7.91,'1111122,1111122,1111122' 
COMPS,ioos:station:USF.COMPS:C12:1,2016-10-04T04:35:00Z,27.4980,-83.7220,3.0,5.36,104.58,6.64,'1111122,1111122,1111122' 
COMPS,ioos:station:USF.COMPS:C12:1,2016-10-04T05:05:00Z,27.4980,-83.7220,3.0,4.47,103.91,5.96,'1111122,1111122,1111122' 
COMPS,ioos:station:USF.COMPS:C12:1,2016-10-04T05:35:00Z,27.4980,-83.7220,3.0,4.06,100.23,5.39,'1111122,1111122,1111122' 
COMPS,ioos:station:USF.COMPS:C12:1,2016-10-04T06:05:00Z,27.4980,-83.7220,3.0,4.29,90.01,5.49,'1111122,1111122,1111122' 
COMPS,ioos:station:USF.COMPS:C12:1,2016-10-04T06:35:00Z,27.4980,-83.7220,3.0,5.04,104.92,6.45,'1111122,1111122,1111122' 
COMPS,ioos:station:USF.COMPS:C12:1,2016-10-04T07:05:00Z,27.4980,-83.7220,3.0,4.65,102.22,6.08,'1111122,1111122,1111122' 
COMPS,ioos:station:USF.COMPS:C12:1,2016-10-04T07:35:00Z,27.4980,-83.7220,3.0,5.17,94.91,6.51,'1111122,1111122,1111122' 
COMPS,ioos:station:USF.COMPS:C12:1,2016-10-04T08:05:00Z,27.4980,-83.7220,3.0,5.79,93.96,6.84,'1111122,1111122,1111122' 
COMPS,ioos:station:USF.COMPS:C12:1,2016-10-04T08:35:00Z,27.4980,-83.7220,3.0,5.79,93.76,7.56,'1111122,1111122,1111122' 
COMPS,ioos:station:USF.COMPS:C12:1,2016-10-04T09:05:00Z,27.4980,-83.7220,3.0,6.04,97.46,7.88,'1111122,1111122,1111122' 
COMPS,ioos:station:USF.COMPS:C12:1,2016-10-04T09:35:00Z,27.4980,-83.7220,3.0,6.03,90.68,7.44,'1111122,1111122,1111122' 
COMPS,ioos:station:USF.COMPS:C12:1,2016-10-04T10:05:00Z,27.4980,-83.7220,3.0,5.66,95.88,6.88,'1111122,1111122,1111122' 
COMPS,ioos:station:USF.COMPS:C12:1,2016-10-04T10:35:00Z,27.4980,-83.7220,3.0,5.66,91.65,6.9,'1111122,1111122,1111122' 
COMPS,ioos:station:USF.COMPS:C12:1,2016-10-04T11:05:00Z,27.4980,-83.7220,3.0,5.4,93.23,6.78,'1111122,1111122,1111122' 
COMPS,ioos:station:USF.COMPS:C12:1,2016-10-04T11:35:00Z,27.4980,-83.7220,3.0,5.66,91.61,7.01,'1111122,1111122,1111122' 
COMPS,ioos:station:USF.COMPS:C12:1,2016-10-04T12:05:00Z,27.4980,-83.7220,3.0,5.42,80.97,6.76,'1111122,1111122,1111122' 
COMPS,ioos:station:USF.COMPS:C12:1,2016-10-04T12:35:00Z,27.4980,-83.7220,3.0,4.81,81.15,6.32,'1111122,1111122,1111122' 
COMPS,ioos:station:USF.COMPS:C12:1,2016-10-04T13:05:00Z,27.4980,-83.7220,3.0,6.87,86.56,8.63,'1111122,1111122,1111122' 
COMPS,ioos:station:USF.COMPS:C12:1,2016-10-04T13:35:00Z,27.4980,-83.7220,3.0,4.96,83.21,6.35,'1111122,1111122,1111122' 
COMPS,ioos:station:USF.COMPS:C12:1,2016-10-04T14:05:00Z,27.4980,-83.7220,3.0,5.03,83.25,6.32,'1111122,1111122,1111122' 
COMPS,ioos:station:USF.COMPS:C12:1,2016-10-04T14:35:00Z,27.4980,-83.7220,3.0,4.9,77.47,6.08,'1111122,1111122,1111122' 
COMPS,ioos:station:USF.COMPS:C12:1,2016-10-04T15:05:00Z,27.4980,-83.7220,3.0,4.4,81.32,5.45,'1111122,1111122,1111122' 
COMPS,ioos:station:USF.COMPS:C12:1,2016-10-04T15:35:00Z,27.4980,-83.7220,3.0,4.73,75.02,5.59,'1111122,1111122,1111122' 
COMPS,ioos:station:USF.COMPS:C12:1,2016-10-04T16:05:00Z,27.4980,-83.7220,3.0,5.06,74.45,6.32,'1111122,1111122,1111122' 
COMPS,ioos:station:USF.COMPS:C12:1,2016-10-04T16:35:00Z,27.4980,-83.7220,3.0,5.77,69.87,7.36,'1111122,1111122,1111122' 
COMPS,ioos:station:USF.COMPS:C12:1,2016-10-04T17:05:00Z,27.4980,-83.7220,3.0,5.27,66.79,7.19,'1111122,1111122,1111122' 
COMPS,ioos:station:USF.COMPS:C12:1,2016-10-04T17:35:00Z,27.4980,-83.7220,3.0,5.52,66.85,7.05,'1111122,1111122,1111122' 
COMPS,ioos:station:USF.COMPS:C12:1,2016-10-04T18:05:00Z,27.4980,-83.7220,3.0,5.19,65.35,6.5,'1111122,1111122,1111122' 
COMPS,ioos:station:USF.COMPS:C12:1,2016-10-04T18:35:00Z,27.4980,-83.7220,3.0,5.47,65.28,6.62,'1111122,1111122,1111122' 
COMPS,ioos:station:USF.COMPS:C12:1,2016-10-04T19:05:00Z,27.4980,-83.7220,3.0,4.96,67.93,6.03,'1111122,1111122,1111122' 
COMPS,ioos:station:USF.COMPS:C12:1,2016-10-04T19:35:00Z,27.4980,-83.7220,3.0,4.87,63.19,6.14,'1111122,1111122,1111122' 
COMPS,ioos:station:USF.COMPS:C12:1,2016-10-04T20:05:00Z,27.4980,-83.7220,3.0,5.13,53.06,6.44,'1111122,1111122,1111122' 
COMPS,ioos:station:USF.COMPS:C12:1,2016-10-04T20:35:00Z,27.4980,-83.7220,3.0,5.55,40.13,6.55,'1111122,1111122,1111122' 
COMPS,ioos:station:USF.COMPS:C12:1,2016-10-04T21:05:00Z,27.4980,-83.7220,3.0,5.66,43.83,7.23,'1111122,1111122,1111122' 
COMPS,ioos:station:USF.COMPS:C12:1,2016-10-04T21:35:00Z,27.4980,-83.7220,3.0,5.95,38.89,8.54,'1111122,1111122,1111122' 
COMPS,ioos:station:USF.COMPS:C12:1,2016-10-04T22:05:00Z,27.4980,-83.7220,3.0,6.7,46.93,8.01,'1111122,1111122,1111122' 
COMPS,ioos:station:USF.COMPS:C12:1,2016-10-04T22:35:00Z,27.4980,-83.7220,3.0,7.15,45.26,8.43,'1111122,1111122,1111122' 
COMPS,ioos:station:USF.COMPS:C12:1,2016-10-04T23:05:00Z,27.4980,-83.7220,3.0,7.68,50.16,9.34,'1111122,1111122,1111122' 
COMPS,ioos:station:USF.COMPS:C12:1,2016-10-04T23:35:00Z,27.4980,-83.7220,3.0,8.31,51.61,10.69,'1111122,1111122,1111122' 
COMPS,ioos:station:USF.COMPS:C12:1,2016-10-05T00:05:00Z,27.4980,-83.7220,3.0,9.92,68.48,12.09,'1111122,1111122,1111122' 
COMPS,ioos:station:USF.COMPS:C12:1,2016-10-05T00:35:00Z,27.4980,-83.7220,3.0,9.22,78.11,11.35,'1111122,1111122,1111122' 
COMPS,ioos:station:USF.COMPS:C12:1,2016-10-05T01:05:00Z,27.4980,-83.7220,3.0,8.98,84.41,10.97,'1111122,1111122,1111122' 
COMPS,ioos:station:USF.COMPS:C12:1,2016-10-05T01:35:00Z,27.4980,-83.7220,3.0,9.36,77.29,11.13,'1111122,1111122,1111122' 
COMPS,ioos:station:USF.COMPS:C12:1,2016-10-05T02:05:00Z,27.4980,-83.7220,3.0,9.11,76.81,11.55,'1111122,1111122,1111122' 
COMPS,ioos:station:USF.COMPS:C12:1,2016-10-05T02:35:00Z,27.4980,-83.7220,3.0,8.31,77.53,10.51,'1111122,1111122,1111122' 
COMPS,ioos:station:USF.COMPS:C12:1,2016-10-05T03:05:00Z,27.4980,-83.7220,3.0,8.86,82.27,10.33,'1111122,1111122,1111122' 